UAII

Shymkent Airport

Airport
ICAO code
UAII
IATA Code
CIT
Summary
ICAO Region
APAC
ICAO Territory
Location

Shymkent,

Serving
Shymkent
Elevation
1384 ft
Coordinates
42° 21' 47" N , 69° 28' 47" E
KCC
Airport BS
Bird Strike
Airport CFIT
Altimeter Temperature Error Correction
Airport WX
Fog
Metar
UAII 181600Z 05006G11MPS 020V100 CAVOK 21/04 Q1010 NOSIG RMK QFE722/0963

Description

International airport serving the city of Shymkent, Kazakhstan.

Climatology

Cold Semi-arid climate (Köppen climate classification BSk). - Hot, sometimes extremely hot summers and cold, sometimes very cold winters. Some snowfall during the winter. Areas featuring cold semi-arid climates are sometimes subject to major temperature swings during a 24 hour period.

Runways

Designator Length Width Surface Rops
10/28 2800 44 CON No/No

Airport map

Aerial View

SKYbrary Partners:

Safety knowledge contributed by: